Location: Ash Shall?l al Awwal
(24.0167°N, 32.8667°E)
Time: 18:21:34
(UTC+00:00)

GPS 2-14 Rocket1 - Pass Details

Date: 02 March 2021
Orbit: 475 x 539 km, 20.7° (Epoch: 09 April)

Event Time Altitude Azimuth Distance (km) Brightness Sun altitude
Rises 16:37:20 0° 256° (WSW) 2,543 8.1 -11.2°
Reaches altitude 10° 16:39:37 10° 250° (WSW) 1,653 6.6 -11.7°
Maximum altitude 16:43:18 47° 176° (S) 632 3.1 -12.5°
Enters shadow 16:45:35 20° 109° (ESE) 1,140 3.9 -13.1°
